Location: Burgberg
(50.1428°N, 11.0671°E)
Time: 16:02:54
(UTC+00:00)

Cosmos 1606 Rocket - Pass Details

Date: 26 January 2020
Orbit: 602 x 633 km, 82.5° (Epoch: 20 February)

Event Time Altitude Azimuth Distance (km) Brightness Sun altitude
Exits shadow 05:24:50 24° 265° (W) 1,307 4.6 -14.9°
Maximum altitude 05:25:59 27° 291° (WNW) 1,214 4.5 -14.7°
Drops below altitude 10° 05:29:45 10° 349° (N) 1,992 5.9 -14.1°
Sets 05:32:16 0° 2° (N) 2,897 6.9 -13.7°
